This demonstration page uses our WeatherBlox Daily Observations layout. Learn more.

Left ArrowRight Arrow

40.92945, -100.16068

Hourly Observations for February 20, 2021

Temp ( °F °C ) Dew Point ( °F °C ) Humidity (%) Winds ( mph kmh ) Pressure ( in mb ) Visibility ( mi km ) Precip ( " mm )
12:15 am 00:15 Clear with Mist and Fog 3 -15.9 N/A 86 86 NW 3 6 30.35 1028 4 6.43736 N/A
12:35 am 00:35 Cloudy with Freezing Fog 2 -16.8 -1 -18.6 86 86 N N/A 30.36 1028 0.5 0.80467 N/A
12:55 am 00:55 Cloudy with Freezing Fog 4 -15.4 1 -17.5 84 84 N N/A 30.35 1028 0.25 0.402335 N/A
1:15 am 01:15 Cloudy with Mist and Fog 2 -16.9 -3 -19.2 82 82 WNW 5 7 30.37 1028 1.5 2.41401 N/A
1:35 am 01:35 Cloudy with Mist and Fog 1 -17.1 -3 -19.4 82 82 WSW 3 6 30.36 1028 0.75 1.207005 N/A
1:55 am 01:55 Cloudy with Mist and Fog 4 -15.3 1 -17.3 85 85 W 5 7 30.34 1027 0.75 1.207005 N/A
2:15 am 02:15 Cloudy with Freezing Fog 5 -15.1 1 -17.2 84 84 W 6 9 30.34 1027 0.25 0.402335 N/A
2:35 am 02:35 Clear with Mist and Fog 2 -16.5 -2 -18.7 83 83 W 5 7 30.35 1028 5 8.0467 N/A
2:55 am 02:55 Clear 4 -15.3 1 -17.3 85 85 WNW 7 11 30.33 1027 7 11.26538 N/A
3:15 am 03:15 Clear with Mist and Fog 3 -16 -1 -18.2 83 83 WNW 6 9 30.33 1027 5 8.0467 N/A
3:35 am 03:35 Clear with Mist and Fog 1 -17 -3 -19.3 82 82 WNW 3 6 30.33 1027 5 8.0467 N/A
3:55 am 03:55 Clear 3 -16.2 -1 -18.2 85 85 W 6 9 30.32 1027 7 11.26538 N/A
4:15 am 04:15 Clear with Mist and Fog 4 -15.8 N/A 84 84 W 6 9 30.31 1027 5 8.0467 N/A
4:35 am 04:35 Clear with Mist and Fog 3 -16.2 -1 -18.4 83 83 W 3 6 30.32 1027 5 8.0467 N/A
4:55 am 04:55 Clear with Mist and Fog 3 -16 -1 -18.1 84 84 W 3 6 30.31 1026 5 8.0467 N/A
5:15 am 05:15 Clear 2 -16.5 -2 -18.7 83 83 W 3 6 30.31 1026 7 11.26538 N/A
5:35 am 05:35 Clear 3 -15.9 -1 -18.1 83 83 W 6 9 30.32 1027 7 11.26538 N/A
5:55 am 05:55 Clear with Mist and Fog 3 -15.9 -1 -18.1 83 83 SW 5 7 30.32 1027 5 8.0467 N/A
6:15 am 06:15 Clear with Mist and Fog 6 -14.5 3 -16.3 86 86 W 5 7 30.3 1026 5 8.0467 N/A
6:35 am 06:35 Clear with Mist and Fog 5 -15.2 1 -17.1 86 86 W 3 6 30.31 1026 4 6.43736 N/A
6:55 am 06:55 Clear with Mist and Fog 2 -16.6 -2 -18.8 83 83 WNW 5 7 30.31 1027 5 8.0467 N/A
7:15 am 07:15 Clear with Mist and Fog 1 -17.1 -3 -19.2 84 84 WNW 3 6 30.32 1027 5 8.0467 N/A
7:35 am 07:35 Sunny 1 -17 -3 -19.3 82 82 N N/A 30.32 1027 7 11.26538 N/A
7:55 am 07:55 Sunny 1 -17.5 -4 -19.8 82 82 N N/A 30.32 1027 7 11.26538 N/A
8:15 am 08:15 Hazy 2 -16.7 -2 -19.1 82 82 N N/A 30.31 1027 4 6.43736 N/A
8:35 am 08:35 Sunny 2 -16.6 -2 -18.9 83 83 NW 3 6 30.32 1027 7 11.26538 N/A
8:55 am 08:55 Sunny 4 -15.5 N/A 84 84 WNW 3 6 30.31 1026 7 11.26538 N/A
9:15 am 09:15 Sunny 8 -13.4 4 -15.3 86 86 WNW 5 7 30.28 1025 7 11.26538 N/A
9:35 am 09:35 Sunny 8 -13.2 5 -15.2 85 85 N N/A 30.28 1025 7 11.26538 N/A
9:55 am 09:55 Sunny 11 -11.4 8 -13.1 87 87 N N/A 30.25 1024 7 11.26538 N/A
10:15 am 10:15 Sunny 13 -10.5 10 -12.1 88 88 N N/A 30.23 1024 7 11.26538 N/A
10:35 am 10:35 Sunny 16 -8.9 13 -10.4 89 89 N N/A 30.21 1023 7 11.26538 N/A
10:55 am 10:55 Sunny 17 -8.1 15 -9.5 90 90 N N/A 30.18 1022 10 16.0934 N/A
11:15 am 11:15 Sunny 19 -7.2 17 -8.6 90 90 N N/A 30.16 1021 10 16.0934 N/A
11:35 am 11:35 Sunny 21 -6.2 19 -7.5 91 91 N N/A 30.15 1021 10 16.0934 N/A
11:55 am 11:55 Sunny 24 -4.5 20 -6.7 85 85 N N/A 30.13 1020 10 16.0934 N/A
12:15 pm 12:15 Sunny 26 -3.4 19 -7.1 76 76 N N/A 30.11 1020 10 16.0934 N/A
12:35 pm 12:35 Sunny 28 -2 20 -6.6 71 71 ENE 3 6 30.09 1019 10 16.0934 N/A
12:55 pm 12:55 Sunny 30 -1.3 22 -5.5 73 73 ENE 3 6 30.06 1018 10 16.0934 N/A
1:15 pm 13:15 Sunny 35 1.8 23 -4.8 62 62 ESE 6 9 30.01 1016 10 16.0934 N/A
1:35 pm 13:35 Partly Cloudy 37 2.5 25 -3.9 63 63 SE 5 7 29.99 1016 10 16.0934 N/A
1:55 pm 13:55 Partly Cloudy 37 2.5 26 -3.4 65 65 ESE 5 7 29.98 1015 10 16.0934 N/A
2:15 pm 14:15 Sunny 37 2.8 26 -3.2 65 65 ESE 6 9 29.97 1015 10 16.0934 N/A
2:35 pm 14:35 Sunny 37 2.8 27 -2.7 67 67 ESE 5 7 29.96 1015 10 16.0934 N/A
2:55 pm 14:55 Sunny 37 2.9 27 -2.6 67 67 ESE 8 13 29.95 1014 10 16.0934 N/A
3:15 pm 15:15 Sunny 38 3.3 28 -2.4 67 67 SE 8 13 29.94 1014 10 16.0934 N/A
3:35 pm 15:35 Sunny 38 3.6 27 -2.7 64 64 SE 8 13 29.92 1013 10 16.0934 N/A
3:55 pm 15:55 Sunny 38 3.4 27 -2.8 64 64 SE 9 15 29.92 1013 10 16.0934 N/A
4:15 pm 16:15 Sunny 38 3.4 26 -3.2 62 62 SE 13 20 29.91 1013 10 16.0934 N/A
4:35 pm 16:35 Sunny 37 2.8 27 -2.7 67 67 SE 14 22 29.91 1013 10 16.0934 N/A
4:55 pm 16:55 Sunny 36 2.4 27 -2.8 69 69 ESE 14 22 29.91 1013 10 16.0934 N/A
5:15 pm 17:15 Sunny 35 1.6 27 -2.9 72 72 ESE 12 19 29.91 1013 10 16.0934 N/A
5:35 pm 17:35 Sunny 34 1.2 27 -2.9 74 74 ESE 14 22 29.91 1013 10 16.0934 N/A
5:55 pm 17:55 Sunny 34 1 27 -2.9 75 75 SE 13 20 29.91 1013 10 16.0934 N/A
6:15 pm 18:15 Sunny 33 0.6 27 -2.8 78 78 ESE 12 19 29.91 1013 10 16.0934 N/A
6:35 pm 18:35 Clear 33 0.7 27 -2.7 78 78 ESE 10 17 29.92 1013 10 16.0934 N/A
6:55 pm 18:55 Clear 34 0.9 28 -2.5 78 78 ESE 12 19 29.92 1013 10 16.0934 N/A
7:15 pm 19:15 Clear 34 1 28 -2.5 78 78 ESE 12 19 29.92 1013 10 16.0934 N/A
7:35 pm 19:35 Clear 34 1 28 -2.3 79 79 ESE 13 20 29.92 1013 10 16.0934 N/A
7:55 pm 19:55 Clear 33 0.7 28 -2 82 82 ESE 13 20 29.91 1013 10 16.0934 N/A
8:15 pm 20:15 Clear 33 0.7 28 -2 82 82 ESE 12 19 29.92 1013 10 16.0934 N/A
8:35 pm 20:35 Clear 34 1 28 -2.1 80 80 SE 16 26 29.91 1013 10 16.0934 N/A
8:55 pm 20:55 Partly Cloudy 33 0.5 28 -2.3 82 82 SE 16 26 29.92 1013 10 16.0934 N/A
9:15 pm 21:15 Clear 32 undefined 27 -2.7 82 82 SE 18 30 29.92 1013 10 16.0934 N/A
9:35 pm 21:35 Clear 32 undefined 27 -2.7 82 82 SE 17 28 29.92 1013 10 16.0934 N/A
9:55 pm 21:55 Partly Cloudy 32 undefined 27 -2.6 83 83 SE 15 24 29.92 1013 10 16.0934 N/A
10:15 pm 22:15 Partly Cloudy 32 undefined 28 -2.5 83 83 SE 14 22 29.92 1013 10 16.0934 N/A
10:35 pm 22:35 Clear 32 -0.1 28 -2.5 84 84 SE 12 19 29.93 1013 10 16.0934 N/A
10:55 pm 22:55 Clear 31 -0.3 27 -2.6 85 85 SE 7 11 29.93 1014 10 16.0934 N/A
11:15 pm 23:15 Clear 32 -0.2 28 -2.5 85 85 N N/A 29.95 1014 10 16.0934 N/A
11:35 pm 23:35 Partly Cloudy 31 -0.7 27 -2.6 87 87 NW 5 7 29.96 1015 10 16.0934 N/A
11:55 pm 23:55 Cloudy 30 -1 28 -2.5 90 90 N 6 9 29.96 1014 7 11.26538 N/A

Powered by AerisWeather